STARLINK-1962 (47563 NORAD) Tracking and Keplerian Element Data

This shows tracking and keplerian element data for the satellite.

Feedback or suggestion? Click here.




ElementValue
Catalog47563
NameSTARLINK-1962
Epoch Orbit177
Epoch Day101.91668981
Epoch Year2021
RAAN157.5703
Inclination53.0521
Eccentricity0.0003863
Argument of Perigee11.8515
Mean Anonmoly225.5772
Mean Motion15.62782839
Decay Rate0.00013289
L11 47563U 21009R 21101.91668981 .00013289 00000-0 15054-3 0 9991
L22 47563 53.0521 157.5703 0003863 11.8515 225.5772 15.62782839 1778

Live tracking and technical data element details for STARLINK-1962 (NORAD 47563). STARLINK-1962 can be tracked NOW for your location showing map with azimuth and elevation plus other details from your city location.

Track the satellite on the map from your city or location and see movement details for azimuth, elevation, latitude, longitude, range, height, and movement on the map or in text.







IsCatalogInMostPopularTable: catalog: 47563, numindb: 19
Update: records affected: 1



GetName: 47563 STARLINK-1962

Hit Count: updated at: Tue, 13 Apr 2021 04:42:48 GMT